Погода в Утрехте

Нидерланды     52°05′46″N   5°06′42″E
темп.,
°C
ветер,
м/с
пор.,
м/с
влажн.,
%
обл.,
%
осадки,
мм/ч
давл.,
гПа
погр.,
м
15 июня, вт
вт1523:00+16ссв3785100 0.0 1020228
02:00+14ссв3692100 0.0 1020172
05:00+15ссв3672100 0.0 1021313
08:00+15ссв3568100 0.0 1022317
11:00+15св2464100 0.0 1022310
14:00+17св3457100 0.0 1021442
17:00+21всв224754 0.0 1020916
20:00+20св2360100 0.0 1019436
16 июня, ср
ср1623:00+15св357598 0.0 101987
02:00+14в2383100 0.0 101861
05:00+13в238661 0.0 101760
08:00+17в357398 0.0 1015212
11:00+23вюв33615 0.0 1015649
14:00+26юв235445 0.0 10131559
17:00+28юз134411 0.0 10121891
20:00+27ссв11546 0.0 1011355
17 июня, чт
чт1723:00+21всв347618 0.0 101267
02:00+21в247972 0.0 101179
05:00+19вюв358222 0.0 101078
08:00+22юв247492 0.0 1011181
11:00+28юв45545 0.0 1010693
14:00+31ююв5745100 0.0 10091728
17:00+31ююз474922 0.0 10081549
20:00+22зсз488934 1.0 1009326
18 июня, пт
пт1823:00+20зсз11952 2.0 101032
02:00+18зюз2396100 2.1 101056
05:00+16з249799 0.0 1011105
08:00+17з239397 0.0 1011260
11:00+20юз2384100 0.5 1011523
14:00+18зюз1290100 0.9 1012251
17:00+24ююз126870 0.2 1010845
20:00+21ююз368788 4.8 1009489
19 июня, сб
сб1923:00+17сз3698100 3.4 1011240
02:00+17юз3799100 4.7 1012370
05:00+16юз41097100 0.8 1013629
08:00+15зсз2496100 0.9 1015319
11:00+15с238998 0.0 1016474
14:00+18ю1174100 0.1 1017860
17:00+20юв1169100 0.0 1016897
20:00+19всв2379100 0.0 1016256